Location: ???? ?????????
(31.1304°N, 31.7111°E)
Time: 18:52:29
(UTC+00:00)

H-2A R/B - Pass Details

Date: 29 October 2020
Orbit: 733 x 837 km, 98.2° (Epoch: 30 November)

Event Time Altitude Azimuth Distance (km) Brightness Sun altitude
Exits shadow 17:56:29 23° 230° (SW) 1,681 4.0 -36.8°
Maximum altitude 17:58:22 29° 263° (W) 1,491 3.9 -37.2°
Drops below altitude 10° 18:03:02 10° 322° (NW) 2,451 5.0 -38.2°
Sets 18:05:44 0° 334° (NNW) 3,391 5.7 -38.8°
